Simultaneous Nadir Overpasses (SNOs) Predictions

Prediction of SNOs between AQUA and NOAA-19 Satellite Orbit:

Table of predicted SNOs for the next 14.0 days since TLE Epoch: 1/10/2015
Index Date (AQUA) Time (AQUA) Lat,Lon (AQUA) SZA (AQUA ) Date (NOAA-19) Time (NOAA-19) Lat,Lon (NOAA-19) SZA (NOAA-19 ) Distance(km) Time Diff (sec)
1 01/10/2015 21:31:43 -79.36, 11.15 77.65 01/10/2015 21:30:29 -79.35, 11.26 77.64 2.44 74
2 01/10/2015 22:21:05 79.16,-179.92 102.07 01/10/2015 22:21:26 79.15,-179.92 102.06 0.20 21
3 01/13/2015 03:05:30 79.27, 108.28 101.90 01/13/2015 03:05:03 79.26, 108.35 101.89 1.61 27
4 01/13/2015 03:54:50 -79.03, -82.57 78.46 01/13/2015 03:55:55 -79.01, -82.44 78.50 3.20 65
5 01/15/2015 07:50:09 79.91, 32.54 102.49 01/15/2015 07:48:55 79.82, 32.34 102.46 11.14 74
6 01/15/2015 08:39:17 -79.23,-154.96 78.53 01/15/2015 08:39:35 -79.24,-155.10 78.52 3.05 18
7 01/17/2015 13:23:41 -79.34, 133.26 78.77 01/17/2015 13:23:11 -79.34, 133.23 78.76 0.49 30
8 01/17/2015 14:13:01 79.07, -57.38 100.84 01/17/2015 14:14:07 79.06, -57.30 100.80 1.93 66
9 01/19/2015 18:57:26 79.24,-129.54 100.65 01/19/2015 18:57:46 79.25,-129.64 100.66 2.24 20
10 01/21/2015 23:41:48 79.32, 158.91 100.29 01/21/2015 23:41:21 79.31, 159.02 100.28 2.26 27




NCC Satellite Simultaneous Nadir Overpasses (SNOs) Prediction Service
